,,,PA_Meas_PMT16A,,PR_Meas_QMR101_102,,RH_Meas_QMH101,,SR_Meas_QMS101,,TA_Meas_QMH101,,GenWind,,GenWind,
date,time,status,PA,status,PR,status,RH,status,SR,status,TA,status,DirAvg,status,SpdAvg,
2010-10-11, 00:00:04,VALID,1000.69,VALID,0,VALID,88.969,VALID,0,VALID,24.6556,VALID,118,VALID,0.926172,
2010-10-11, 00:01:04,VALID,1000.65,VALID,0,VALID,89.0682,VALID,0,VALID,24.6556,VALID,135,VALID,0.844141,
2010-10-11, 00:02:04,VALID,1000.66,VALID,0,VALID,89.1368,VALID,0,VALID,24.6556,VALID,134,VALID,1.09063,
2010-10-11, 00:03:04,VALID,1000.68,VALID,0,VALID,89.0453,VALID,0,VALID,24.6965,VALID,128,VALID,1.17109,
2010-10-11, 00:04:04,VALID,1000.64,VALID,0,VALID,88.9919,VALID,0,VALID,24.6946,VALID,131,VALID,1.14883,
2010-10-11, 00:05:04,VALID,1000.65,VALID,0,VALID,89.0071,VALID,0,VALID,24.7337,VALID,133,VALID,0.869531,
2010-10-11, 00:06:04,VALID,1000.66,VALID,0,VALID,88.9919,VALID,0,VALID,24.7532,VALID,141,VALID,1.33867,
2010-10-11, 00:07:04,VALID,1000.62,VALID,0,VALID,88.9385,VALID,0,VALID,24.7922,VALID,147,VALID,1.22852,
2010-10-11, 00:08:04,VALID,1000.58,VALID,0,VALID,88.7096,VALID,0.112286,VALID,24.8117,VALID,141,VALID,1.21406,
2010-10-11, 00:09:04,VALID,1000.55,VALID,0,VALID,88.5723,VALID,0,VALID,24.8313,VALID,137,VALID,1.20977,
2010-10-11, 00:10:04,VALID,1000.51,VALID,0,VALID,88.4349,VALID,0,VALID,24.8313,VALID,130,VALID,1.05117,
2010-10-11, 00:11:04,VALID,1000.48,VALID,0,VALID,88.3281,VALID,0,VALID,24.8099,VALID,123,VALID,0.986328,
2010-10-11, 00:12:04,VALID,1000.5,VALID,0,VALID,88.2976,VALID,0,VALID,24.8313,VALID,128,VALID,0.694922,
2010-10-11, 00:13:04,VALID,1000.51,VALID,0,VALID,88.3739,VALID,0,VALID,24.8117,VALID,124,VALID,1.06406,
2010-10-11, 00:14:04,VALID,1000.51,VALID,0,VALID,88.3892,VALID,0,VALID,24.7922,VALID,135,VALID,0.735937,
2010-10-11, 00:15:04,VALID,1000.53,VALID,0,VALID,88.4502,VALID,0,VALID,24.7922,VALID,129,VALID,0.816016,
2010-10-11, 00:16:04,VALID,1000.51,VALID,0,VALID,88.5189,VALID,0,VALID,24.7727,VALID,130,VALID,0.675391,
2010-10-11, 00:17:04,VALID,1000.48,VALID,0,VALID,88.4731,VALID,0,VALID,24.7532,VALID,131,VALID,1.06367,
2010-10-11, 00:18:04,VALID,1000.46,VALID,0,VALID,88.557,VALID,0,VALID,24.7337,VALID,133,VALID,1.18711,
2010-10-11, 00:19:04,VALID,1000.45,VALID,0,VALID,88.6562,VALID,0,VALID,24.7123,VALID,131,VALID,1.19336,
2010-10-11, 00:20:04,VALID,1000.44,VALID,0,VALID,88.7249,VALID,0.112286,VALID,24.7142,VALID,132,VALID,1.25391,
2010-10-11, 00:21:04,VALID,1000.46,VALID,0,VALID,88.7554,VALID,0,VALID,24.7142,VALID,134,VALID,1.07344,
2010-10-11, 00:22:04,VALID,1000.46,VALID,0,VALID,88.8088,VALID,0.112286,VALID,24.6928,VALID,128,VALID,0.930859,
2010-10-11, 00:23:04,VALID,1000.44,VALID,0,VALID,88.8774,VALID,0,VALID,24.6946,VALID,128,VALID,1.01328,
2010-10-11, 00:24:04,VALID,1000.44,VALID,0,VALID,88.908,VALID,0,VALID,24.6751,VALID,127,VALID,0.765234,
2010-10-11, 00:25:04,VALID,1000.4,VALID,0,VALID,88.9232,VALID,0,VALID,24.6556,VALID,127,VALID,0.810156,
2010-10-11, 00:26:04,VALID,1000.39,VALID,0,VALID,88.9766,VALID,0,VALID,24.6361,VALID,127,VALID,0.791797,
2010-10-11, 00:27:04,VALID,1000.37,VALID,0,VALID,88.9995,VALID,0,VALID,24.6166,VALID,127,VALID,0.464844,
2010-10-11, 00:28:04,VALID,1000.34,VALID,0,VALID,88.9156,VALID,0,VALID,24.6166,VALID,129,VALID,0.965625,
2010-10-11, 00:29:04,VALID,1000.32,VALID,0,VALID,88.7096,VALID,0,VALID,24.5971,VALID,120,VALID,0.867969,
2010-10-11, 00:30:04,VALID,1000.31,VALID,0,VALID,88.5875,VALID,0,VALID,24.5775,VALID,120,VALID,0.56875,
2010-10-11, 00:31:04,VALID,1000.25,VALID,0,VALID,88.5417,VALID,0,VALID,24.5775,VALID,120,VALID,0.428125,
2010-10-11, 00:32:04,VALID,1000.23,VALID,0,VALID,88.6562,VALID,0,VALID,24.558,VALID,103,VALID,0.969141,
2010-10-11, 00:33:04,VALID,1000.19,VALID,0,VALID,88.7859,VALID,0,VALID,24.5599,VALID,107,VALID,1.03672,
2010-10-11, 00:34:04,VALID,1000.12,VALID,0,VALID,88.8622,VALID,0,VALID,24.5404,VALID,105,VALID,0.785547,
2010-10-11, 00:35:04,VALID,1000.09,VALID,0,VALID,88.9309,VALID,0,VALID,24.5404,VALID,105,VALID,0.781641,
2010-10-11, 00:36:04,VALID,1000.07,VALID,0,VALID,88.7401,VALID,0,VALID,24.5209,VALID,106,VALID,0.884766,
2010-10-11, 00:37:04,VALID,1000.04,VALID,0,VALID,88.6562,VALID,0,VALID,24.5013,VALID,103,VALID,0.869922,
2010-10-11, 00:38:04,VALID,1000.01,VALID,0,VALID,88.6333,VALID,0,VALID,24.4995,VALID,103,VALID,0.746875,
2010-10-11, 00:39:04,VALID,1000,VALID,0,VALID,88.5646,VALID,0,VALID,24.48,VALID,107,VALID,0.781641,
2010-10-11, 00:40:04,VALID,999.98,VALID,0,VALID,88.5112,VALID,0.112286,VALID,24.4995,VALID,116,VALID,0.963672,
2010-10-11, 00:41:04,VALID,999.986,VALID,0,VALID,88.412,VALID,0,VALID,24.48,VALID,118,VALID,0.733203,
2010-10-11, 00:42:04,VALID,999.955,VALID,0,VALID,88.1526,VALID,0,VALID,24.48,VALID,110,VALID,0.802344,
2010-10-11, 00:43:04,VALID,999.96,VALID,0,VALID,88.0611,VALID,0,VALID,24.4995,VALID,103,VALID,0.596484,
2010-10-11, 00:44:04,VALID,999.958,VALID,0,VALID,87.9924,VALID,0,VALID,24.4781,VALID,103,VALID,0.639453,
2010-10-11, 00:45:04,VALID,999.906,VALID,0,VALID,87.9619,VALID,0,VALID,24.4995,VALID,111,VALID,0.455859,
2010-10-11, 00:46:04,VALID,999.881,VALID,0,VALID,87.8017,VALID,0,VALID,24.4995,VALID,110,VALID,1.02891,
2010-10-11, 00:47:04,VALID,999.869,VALID,0,VALID,87.7101,VALID,0,VALID,24.519,VALID,101,VALID,0.652734,
2010-10-11, 00:48:04,VALID,999.848,VALID,0,VALID,87.5346,VALID,0,VALID,24.519,VALID,105,VALID,0.887109,
2010-10-11, 00:49:04,VALID,999.87,VALID,0,VALID,87.4889,VALID,0,VALID,24.5385,VALID,104,VALID,0.714063,
2010-10-11, 00:50:04,VALID,999.851,VALID,0,VALID,87.4736,VALID,0,VALID,24.558,VALID,104,VALID,0.487891,
2010-10-11, 00:51:04,VALID,999.873,VALID,0,VALID,87.4126,VALID,0.112286,VALID,24.5366,VALID,104,VALID,0.584375,
2010-10-11, 00:52:04,VALID,999.836,VALID,0,VALID,87.3897,VALID,0,VALID,24.5385,VALID,105,VALID,0.458984,
2010-10-11, 00:53:04,VALID,999.866,VALID,0,VALID,87.4049,VALID,0,VALID,24.5385,VALID,110,VALID,0.490625,
2010-10-11, 00:54:04,VALID,999.841,VALID,0,VALID,87.466,VALID,0,VALID,24.5385,VALID,110,VALID,0.329688,
2010-10-11, 00:55:04,VALID,999.836,VALID,0,VALID,87.4354,VALID,0.112286,VALID,24.5171,VALID,110,VALID,0.279687,
2010-10-11, 00:56:04,VALID,999.861,VALID,0,VALID,87.4583,VALID,0.112286,VALID,24.4976,VALID,110,VALID,0.251563,
2010-10-11, 00:57:04,VALID,999.871,VALID,0,VALID,87.4354,VALID,0,VALID,24.519,VALID,110,VALID,0.296094,
2010-10-11, 00:58:04,VALID,999.898,VALID,0,VALID,87.3668,VALID,0.112286,VALID,24.5385,VALID,133,VALID,0.354297,
2010-10-11, 00:59:04,VALID,999.89,VALID,0,VALID,87.3973,VALID,0,VALID,24.5775,VALID,166,VALID,0.427734,
2010-10-11, 01:00:04,VALID,999.88,VALID,0,VALID,87.466,VALID,0,VALID,24.5971,VALID,166,VALID,0.310547,
2010-10-11, 01:01:04,VALID,999.888,VALID,0,VALID,87.1989,VALID,0.112286,VALID,24.5775,VALID,166,VALID,0.316406,
2010-10-11, 01:02:04,VALID,999.88,VALID,0,VALID,86.7717,VALID,0,VALID,24.5971,VALID,173,VALID,0.544141,
2010-10-11, 01:03:04,VALID,999.858,VALID,0,VALID,86.5123,VALID,0,VALID,24.5952,VALID,173,VALID,0.473437,
2010-10-11, 01:04:04,VALID,999.851,VALID,0,VALID,86.5123,VALID,0,VALID,24.6361,VALID,173,VALID,0.674609,
2010-10-11, 01:05:04,VALID,999.853,VALID,0,VALID,86.3215,VALID,0.112286,VALID,24.6556,VALID,183,VALID,0.939062,
2010-10-11, 01:06:04,VALID,999.847,VALID,0,VALID,86.1232,VALID,0,VALID,24.6946,VALID,176,VALID,0.684375,
2010-10-11, 01:07:04,VALID,999.843,VALID,0,VALID,86.0621,VALID,0,VALID,24.7142,VALID,187,VALID,1.08242,
2010-10-11, 01:08:04,VALID,999.815,VALID,0,VALID,85.9095,VALID,0,VALID,24.7727,VALID,203,VALID,0.823828,
2010-10-11, 01:09:04,VALID,999.779,VALID,0,VALID,85.5357,VALID,0.112286,VALID,24.7922,VALID,177,VALID,0.783203,
2010-10-11, 01:10:04,VALID,999.738,VALID,0,VALID,85.6577,VALID,0,VALID,24.8313,VALID,197,VALID,0.997656,
2010-10-11, 01:11:04,VALID,999.683,VALID,0,VALID,85.3983,VALID,0,VALID,24.8703,VALID,204,VALID,1.27422,
2010-10-11, 01:12:04,VALID,999.696,VALID,0,VALID,85.2305,VALID,0,VALID,24.9093,VALID,196,VALID,1.19844,
2010-10-11, 01:13:04,VALID,999.658,VALID,0,VALID,85.2381,VALID,0,VALID,24.9289,VALID,205,VALID,1.03164,
2010-10-11, 01:14:04,VALID,999.64,VALID,0,VALID,84.9558,VALID,0,VALID,24.9093,VALID,165,VALID,0.790234,
2010-10-11, 01:15:04,VALID,999.634,VALID,0,VALID,85.1923,VALID,0.112286,VALID,24.8703,VALID,188,VALID,0.919531,
2010-10-11, 01:16:04,VALID,999.613,VALID,0,VALID,85.2152,VALID,0,VALID,24.8703,VALID,168,VALID,0.890625,
2010-10-11, 01:17:04,VALID,999.602,VALID,0,VALID,84.9406,VALID,0,VALID,24.8508,VALID,167,VALID,1.27773,
2010-10-11, 01:18:04,VALID,999.605,VALID,0,VALID,85.0245,VALID,0,VALID,24.7903,VALID,181,VALID,1.12734,
2010-10-11, 01:19:04,VALID,999.579,VALID,0,VALID,84.9711,VALID,0.112286,VALID,24.7922,VALID,179,VALID,1.15625,
2010-10-11, 01:20:04,VALID,999.574,VALID,0,VALID,84.9253,VALID,0.112286,VALID,24.7708,VALID,180,VALID,1.31367,
2010-10-11, 01:21:04,VALID,999.55,VALID,0,VALID,84.7346,VALID,0,VALID,24.7922,VALID,172,VALID,1.27031,
2010-10-11, 01:22:04,VALID,999.511,VALID,0,VALID,84.704,VALID,0,VALID,24.7708,VALID,174,VALID,1.28242,
2010-10-11, 01:23:04,VALID,999.489,VALID,0,VALID,85.0626,VALID,0,VALID,24.7746,VALID,164,VALID,1.04766,
2010-10-11, 01:24:04,VALID,999.456,VALID,0,VALID,85.2763,VALID,0,VALID,24.7337,VALID,160,VALID,0.903906,
2010-10-11, 01:25:04,VALID,999.442,VALID,0,VALID,85.5433,VALID,0,VALID,24.7142,VALID,160,VALID,0.767187,
2010-10-11, 01:26:04,VALID,999.423,VALID,0,VALID,85.879,VALID,0,VALID,24.716,VALID,160,VALID,0.727734,
2010-10-11, 01:27:04,VALID,999.409,VALID,0,VALID,86.1308,VALID,0,VALID,24.677,VALID,148,VALID,0.730469,
2010-10-11, 01:28:04,VALID,999.392,VALID,0,VALID,86.3063,VALID,0,VALID,24.6166,VALID,140,VALID,0.653125,
2010-10-11, 01:29:04,VALID,999.406,VALID,0,VALID,86.5046,VALID,0,VALID,24.5794,VALID,140,VALID,0.573438,
2010-10-11, 01:30:04,VALID,999.372,VALID,0,VALID,86.7259,VALID,0,VALID,24.5209,VALID,140,VALID,0.479688,
2010-10-11, 01:31:04,VALID,999.373,VALID,0,VALID,86.9395,VALID,0,VALID,24.4818,VALID,140,VALID,0.622656,
2010-10-11, 01:32:04,VALID,999.353,VALID,0,VALID,87.1608,VALID,0,VALID,24.4233,VALID,140,VALID,0.717969,
2010-10-11, 01:33:04,VALID,999.335,VALID,0,VALID,87.382,VALID,0,VALID,24.3842,VALID,137,VALID,0.7,
2010-10-11, 01:34:04,VALID,999.319,VALID,0,VALID,87.5499,VALID,0,VALID,24.3452,VALID,128,VALID,0.758203,
2010-10-11, 01:35:04,VALID,999.277,VALID,0,VALID,87.8017,VALID,0,VALID,24.3257,VALID,128,VALID,0.966406,
2010-10-11, 01:36:04,VALID,999.267,VALID,0,VALID,88.0153,VALID,0,VALID,24.2848,VALID,121,VALID,0.923047,
2010-10-11, 01:37:04,VALID,999.229,VALID,0,VALID,88.2747,VALID,0,VALID,24.2866,VALID,121,VALID,1.03516,
2010-10-11, 01:38:04,VALID,999.193,VALID,0,VALID,88.6104,VALID,0,VALID,24.2263,VALID,121,VALID,1.28594,
2010-10-11, 01:39:04,VALID,999.159,VALID,0,VALID,88.8317,VALID,0,VALID,24.2281,VALID,119,VALID,1.30078,
2010-10-11, 01:40:04,VALID,999.142,VALID,0,VALID,88.9537,VALID,0,VALID,24.1891,VALID,120,VALID,1.30898,
2010-10-11, 01:41:04,VALID,999.127,VALID,0,VALID,89.0834,VALID,0,VALID,24.1696,VALID,116,VALID,1.06484,
2010-10-11, 01:42:04,VALID,999.126,VALID,0,VALID,89.2132,VALID,0,VALID,24.15,VALID,114,VALID,0.825391,
2010-10-11, 01:43:04,VALID,999.161,VALID,0,VALID,89.3581,VALID,0,VALID,24.1092,VALID,122,VALID,0.474609,
2010-10-11, 01:44:04,VALID,999.164,VALID,0,VALID,89.3963,VALID,0,VALID,24.1305,VALID,122,VALID,0.334375,
2010-10-11, 01:45:04,VALID,999.185,VALID,0,VALID,89.4726,VALID,0,VALID,24.111,VALID,122,VALID,0.0777344,
2010-10-11, 01:46:04,VALID,999.169,VALID,0,VALID,89.526,VALID,0,VALID,24.0915,VALID,122,VALID,0,
2010-10-11, 01:47:04,VALID,999.199,VALID,0,VALID,89.5794,VALID,0,VALID,24.0915,VALID,122,VALID,0,
2010-10-11, 01:48:04,VALID,999.182,VALID,0,VALID,89.6557,VALID,0,VALID,24.0701,VALID,122,VALID,0.114453,
2010-10-11, 01:49:04,VALID,999.195,VALID,0,VALID,89.7549,VALID,0,VALID,24.072,VALID,122,VALID,0.309766,
2010-10-11, 01:50:04,VALID,999.187,VALID,0,VALID,89.8311,VALID,0,VALID,24.072,VALID,122,VALID,0.380859,
2010-10-11, 01:51:04,VALID,999.238,VALID,0,VALID,89.8311,VALID,0,VALID,24.0506,VALID,122,VALID,0.492969,
2010-10-11, 01:52:04,VALID,999.27,VALID,0,VALID,89.7777,VALID,0,VALID,24.072,VALID,122,VALID,0.566406,
2010-10-11, 01:53:04,VALID,999.293,VALID,0,VALID,89.8159,VALID,0,VALID,24.072,VALID,122,VALID,0.5625,
2010-10-11, 01:54:04,VALID,999.235,VALID,0,VALID,89.7854,VALID,0,VALID,24.0525,VALID,122,VALID,0.446875,
2010-10-11, 01:55:04,VALID,999.205,VALID,0,VALID,89.7472,VALID,0,VALID,24.0311,VALID,122,VALID,0.377734,
2010-10-11, 01:56:04,VALID,999.203,VALID,0,VALID,89.793,VALID,0,VALID,24.0329,VALID,122,VALID,0.432031,
2010-10-11, 01:57:04,VALID,999.181,VALID,0,VALID,89.9074,VALID,0,VALID,24.0134,VALID,122,VALID,0.382813,
2010-10-11, 01:58:04,VALID,999.143,VALID,0,VALID,90.0371,VALID,0,VALID,24.0134,VALID,122,VALID,0.422656,
2010-10-11, 01:59:04,VALID,999.147,VALID,0,VALID,90.0448,VALID,0,VALID,23.9939,VALID,122,VALID,0.299219,
2010-10-11, 02:00:04,VALID,999.152,VALID,0,VALID,90.1745,VALID,0,VALID,23.9726,VALID,122,VALID,0.09375,
2010-10-11, 02:01:04,VALID,999.148,VALID,0,VALID,90.3576,VALID,0,VALID,23.9939,VALID,122,VALID,0,
2010-10-11, 02:02:04,VALID,999.142,VALID,0,VALID,90.4491,VALID,0,VALID,23.9744,VALID,122,VALID,0,
2010-10-11, 02:03:04,VALID,999.143,VALID,0,VALID,90.472,VALID,0,VALID,23.9531,VALID,122,VALID,0,
2010-10-11, 02:04:04,VALID,999.153,VALID,0,VALID,90.4339,VALID,0,VALID,23.9336,VALID,122,VALID,0.128125,
2010-10-11, 02:05:04,VALID,999.146,VALID,0,VALID,90.3805,VALID,0,VALID,23.914,VALID,122,VALID,0.299609,
2010-10-11, 02:06:04,VALID,999.133,VALID,0,VALID,90.3652,VALID,0,VALID,23.9549,VALID,122,VALID,0.299219,
2010-10-11, 02:07:04,VALID,999.112,VALID,0,VALID,90.0982,VALID,0,VALID,23.9354,VALID,97,VALID,0.670703,
2010-10-11, 02:08:04,VALID,999.086,VALID,0,VALID,89.5946,VALID,0,VALID,23.914,VALID,80,VALID,0.805078,
2010-10-11, 02:09:04,VALID,999.087,VALID,0,VALID,89.32,VALID,0,VALID,23.9549,VALID,80,VALID,0.788672,
2010-10-11, 02:10:04,VALID,999.104,VALID,0,VALID,89.0987,VALID,0,VALID,23.9939,VALID,80,VALID,0.616016,
2010-10-11, 02:11:04,VALID,999.091,VALID,0,VALID,88.9995,VALID,0,VALID,23.9726,VALID,80,VALID,0.549219,
2010-10-11, 02:12:04,VALID,999.084,VALID,0,VALID,88.9843,VALID,0,VALID,23.9939,VALID,80,VALID,0.29375,
2010-10-11, 02:13:04,VALID,999.095,VALID,0,VALID,88.9461,VALID,0,VALID,23.9726,VALID,80,VALID,0,
2010-10-11, 02:14:04,VALID,999.096,VALID,0,VALID,88.9232,VALID,0,VALID,23.9336,VALID,80,VALID,0.0101562,
2010-10-11, 02:15:04,VALID,999.097,VALID,0,VALID,88.9385,VALID,0,VALID,23.9354,VALID,80,VALID,0,
2010-10-11, 02:16:04,VALID,999.085,VALID,0,VALID,89.0071,VALID,0,VALID,23.9159,VALID,80,VALID,0,
2010-10-11, 02:17:04,VALID,999.082,VALID,0,VALID,89.0911,VALID,0,VALID,23.875,VALID,80,VALID,0,
2010-10-11, 02:18:04,VALID,999.08,VALID,0,VALID,89.114,VALID,0,VALID,23.875,VALID,80,VALID,0,
2010-10-11, 02:19:04,VALID,999.083,VALID,0,VALID,89.1979,VALID,0,VALID,23.8555,VALID,80,VALID,0,
2010-10-11, 02:20:04,VALID,999.08,VALID,0,VALID,89.3505,VALID,0,VALID,23.836,VALID,80,VALID,0,
2010-10-11, 02:21:04,VALID,999.076,VALID,0,VALID,89.4954,VALID,0,VALID,23.8573,VALID,80,VALID,0.319141,
2010-10-11, 02:22:04,VALID,999.103,VALID,0,VALID,89.6099,VALID,0,VALID,23.8573,VALID,80,VALID,0.3375,
2010-10-11, 02:23:04,VALID,999.1,VALID,0,VALID,89.587,VALID,0,VALID,23.8768,VALID,80,VALID,0.394922,
2010-10-11, 02:24:04,VALID,999.093,VALID,0,VALID,89.5031,VALID,0,VALID,23.8963,VALID,80,VALID,0.38125,
2010-10-11, 02:25:04,VALID,999.099,VALID,0,VALID,89.4649,VALID,0,VALID,23.9159,VALID,80,VALID,0.479688,
2010-10-11, 02:26:04,VALID,999.105,VALID,0,VALID,89.4573,VALID,0,VALID,23.914,VALID,80,VALID,0.529297,
2010-10-11, 02:27:04,VALID,999.121,VALID,0,VALID,89.442,VALID,0,VALID,23.9336,VALID,80,VALID,0.502734,
2010-10-11, 02:28:04,VALID,999.113,VALID,0,VALID,89.3734,VALID,0,VALID,23.9531,VALID,80,VALID,0.461719,
2010-10-11, 02:29:04,VALID,999.108,VALID,0,VALID,89.3352,VALID,0,VALID,23.9939,VALID,80,VALID,0.364844,
2010-10-11, 02:30:04,VALID,999.095,VALID,0,VALID,89.3123,VALID,0,VALID,23.9921,VALID,80,VALID,0.255469,
2010-10-11, 02:31:04,VALID,999.062,VALID,0,VALID,89.2742,VALID,0,VALID,23.9921,VALID,80,VALID,0.247656,
2010-10-11, 02:32:04,VALID,999.09,VALID,0,VALID,89.2284,VALID,0,VALID,23.9531,VALID,80,VALID,0.411328,
2010-10-11, 02:33:04,VALID,999.094,VALID,0,VALID,89.3428,VALID,0,VALID,23.9336,VALID,77,VALID,0.553906,
2010-10-11, 02:34:04,VALID,999.11,VALID,0,VALID,89.5412,VALID,0,VALID,23.8945,VALID,44,VALID,0.6625,
2010-10-11, 02:35:04,VALID,999.105,VALID,0,VALID,89.6557,VALID,0,VALID,23.875,VALID,44,VALID,0.475781,
2010-10-11, 02:36:04,VALID,999.091,VALID,0,VALID,89.7472,VALID,0,VALID,23.8555,VALID,44,VALID,0.436719,
2010-10-11, 02:37:04,VALID,999.069,VALID,0,VALID,89.9151,VALID,0,VALID,23.836,VALID,44,VALID,0.397266,
2010-10-11, 02:38:04,VALID,999.056,VALID,0,VALID,90.0295,VALID,0,VALID,23.8165,VALID,44,VALID,0.342187,
2010-10-11, 02:39:04,VALID,999.033,VALID,0,VALID,90.0753,VALID,0,VALID,23.8183,VALID,44,VALID,0.274219,
2010-10-11, 02:40:04,VALID,999.039,VALID,0,VALID,90.1974,VALID,0,VALID,23.8183,VALID,44,VALID,0.267578,
2010-10-11, 02:41:04,VALID,999.01,VALID,0,VALID,90.266,VALID,0,VALID,23.797,VALID,44,VALID,0.422266,
2010-10-11, 02:42:04,VALID,999.014,VALID,0,VALID,90.3652,VALID,0,VALID,23.8165,VALID,44,VALID,0.426172,
2010-10-11, 02:43:04,VALID,998.995,VALID,0,VALID,90.411,VALID,0,VALID,23.8183,VALID,44,VALID,0.347266,
2010-10-11, 02:44:04,VALID,998.995,VALID,0,VALID,90.4491,VALID,0,VALID,23.8183,VALID,44,VALID,0.313672,
2010-10-11, 02:45:04,VALID,998.988,VALID,0,VALID,90.5331,VALID,0,VALID,23.797,VALID,44,VALID,0.264062,
2010-10-11, 02:46:04,VALID,998.947,VALID,0,VALID,90.617,VALID,0,VALID,23.8183,VALID,44,VALID,0.282422,
2010-10-11, 02:47:05,VALID,998.943,VALID,0,VALID,90.7543,VALID,0,VALID,23.7775,VALID,44,VALID,0.193359,
2010-10-11, 02:48:05,VALID,998.902,VALID,0,VALID,90.8383,VALID,0,VALID,23.7793,VALID,44,VALID,0.096875,
2010-10-11, 02:49:05,VALID,998.933,VALID,0,VALID,90.9069,VALID,0,VALID,23.7597,VALID,44,VALID,0.0332031,
2010-10-11, 02:50:05,VALID,998.945,VALID,0,VALID,90.9756,VALID,0,VALID,23.7793,VALID,44,VALID,0.170703,
2010-10-11, 02:51:05,VALID,998.958,VALID,0,VALID,91.029,VALID,0,VALID,23.7597,VALID,44,VALID,0.100781,
2010-10-11, 02:52:05,VALID,998.921,VALID,0,VALID,91.0595,VALID,0,VALID,23.7597,VALID,44,VALID,0.164063,
2010-10-11, 02:53:05,VALID,998.955,VALID,0,VALID,91.0137,VALID,0,VALID,23.7384,VALID,44,VALID,0.217187,
2010-10-11, 02:54:05,VALID,998.932,VALID,0,VALID,90.9069,VALID,0,VALID,23.7597,VALID,44,VALID,0.121875,
2010-10-11, 02:55:05,VALID,998.92,VALID,0,VALID,90.7467,VALID,0,VALID,23.7579,VALID,44,VALID,0.0773437,
2010-10-11, 02:56:05,VALID,998.887,VALID,0,VALID,90.5941,VALID,0,VALID,23.7988,VALID,44,VALID,0,
2010-10-11, 02:57:05,VALID,998.866,VALID,0,VALID,90.472,VALID,0,VALID,23.8183,VALID,44,VALID,0,
2010-10-11, 02:58:05,VALID,998.911,VALID,0,VALID,90.3805,VALID,0,VALID,23.797,VALID,44,VALID,0,
2010-10-11, 02:59:05,VALID,998.899,VALID,0,VALID,90.2508,VALID,0,VALID,23.797,VALID,44,VALID,0,
2010-10-11, 03:00:05,VALID,998.897,VALID,0,VALID,90.1211,VALID,0,VALID,23.8165,VALID,44,VALID,0,
2010-10-11, 03:01:05,VALID,998.909,VALID,0,VALID,89.9074,VALID,0,VALID,23.836,VALID,44,VALID,0.232422,
2010-10-11, 03:02:05,VALID,998.884,VALID,0,VALID,89.6709,VALID,0,VALID,23.8555,VALID,44,VALID,0.461719,
2010-10-11, 03:03:05,VALID,998.875,VALID,0,VALID,89.793,VALID,0,VALID,23.875,VALID,75,VALID,0.730859,
2010-10-11, 03:04:05,VALID,998.897,VALID,0,VALID,89.999,VALID,0,VALID,23.875,VALID,75,VALID,0.755078,
2010-10-11, 03:05:05,VALID,998.918,VALID,0,VALID,90.3042,VALID,0,VALID,23.8945,VALID,75,VALID,0.715625,
2010-10-11, 03:06:05,VALID,998.922,VALID,0,VALID,90.5483,VALID,0,VALID,23.8945,VALID,75,VALID,0.683594,
2010-10-11, 03:07:05,VALID,998.954,VALID,0,VALID,90.6857,VALID,0,VALID,23.8555,VALID,75,VALID,0.766016,
2010-10-11, 03:08:05,VALID,998.945,VALID,0,VALID,90.8154,VALID,0,VALID,23.8768,VALID,75,VALID,0.519922,
2010-10-11, 03:09:05,VALID,998.932,VALID,0,VALID,90.8077,VALID,0,VALID,23.836,VALID,75,VALID,0.520703,
2010-10-11, 03:10:05,VALID,998.967,VALID,0,VALID,90.8001,VALID,0,VALID,23.8165,VALID,75,VALID,0.583984,
2010-10-11, 03:11:05,VALID,998.948,VALID,0,VALID,90.762,VALID,0,VALID,23.8165,VALID,75,VALID,0.534766,
2010-10-11, 03:12:05,VALID,998.983,VALID,0,VALID,90.7391,VALID,0,VALID,23.7775,VALID,75,VALID,0.657812,
2010-10-11, 03:13:05,VALID,998.938,VALID,0,VALID,90.7238,VALID,0,VALID,23.7775,VALID,80,VALID,0.721484,
2010-10-11, 03:14:05,VALID,998.954,VALID,0,VALID,90.6857,VALID,0,VALID,23.7775,VALID,89,VALID,0.840625,
2010-10-11, 03:15:05,VALID,998.97,VALID,0,VALID,90.6933,VALID,0,VALID,23.7579,VALID,103,VALID,0.752344,
2010-10-11, 03:16:05,VALID,998.98,VALID,0,VALID,90.7849,VALID,0,VALID,23.7579,VALID,103,VALID,0.826172,
2010-10-11, 03:17:05,VALID,998.985,VALID,0,VALID,90.9222,VALID,0,VALID,23.7384,VALID,103,VALID,0.661719,
2010-10-11, 03:18:05,VALID,998.992,VALID,0,VALID,91.0519,VALID,0,VALID,23.7579,VALID,103,VALID,0.928516,
2010-10-11, 03:19:05,VALID,999.009,VALID,0,VALID,91.1511,VALID,0,VALID,23.7384,VALID,101,VALID,0.857422,
2010-10-11, 03:20:05,VALID,999.002,VALID,0,VALID,91.1892,VALID,0,VALID,23.7384,VALID,99,VALID,0.742578,
2010-10-11, 03:21:05,VALID,998.999,VALID,0,VALID,91.1892,VALID,0,VALID,23.7402,VALID,93,VALID,0.710938,
2010-10-11, 03:22:05,VALID,999.018,VALID,0,VALID,91.1511,VALID,0.112286,VALID,23.7402,VALID,84,VALID,0.783594,
2010-10-11, 03:23:05,VALID,999.04,VALID,0,VALID,91.0671,VALID,0,VALID,23.7189,VALID,84,VALID,0.751562,
2010-10-11, 03:24:05,VALID,999.031,VALID,0,VALID,91.029,VALID,0,VALID,23.6994,VALID,84,VALID,0.586328,
2010-10-11, 03:25:05,VALID,999.013,VALID,0,VALID,90.9909,VALID,0,VALID,23.7207,VALID,84,VALID,0.374219,
2010-10-11, 03:26:05,VALID,999.043,VALID,0,VALID,90.9909,VALID,0,VALID,23.7207,VALID,84,VALID,0.198828,
2010-10-11, 03:27:05,VALID,999.057,VALID,0,VALID,91.0137,VALID,0,VALID,23.6994,VALID,84,VALID,0,
2010-10-11, 03:28:05,VALID,999.049,VALID,0,VALID,91.029,VALID,0,VALID,23.6994,VALID,84,VALID,0,
2010-10-11, 03:29:05,VALID,999.053,VALID,0,VALID,91.0214,VALID,0,VALID,23.6799,VALID,84,VALID,0.04375,
2010-10-11, 03:30:05,VALID,999.084,VALID,0,VALID,91.0824,VALID,0,VALID,23.6799,VALID,84,VALID,0.2875,
2010-10-11, 03:31:05,VALID,999.094,VALID,0,VALID,91.1053,VALID,0,VALID,23.7012,VALID,84,VALID,0.539063,
2010-10-11, 03:32:05,VALID,999.099,VALID,0,VALID,91.1282,VALID,0,VALID,23.7012,VALID,84,VALID,0.607031,
2010-10-11, 03:33:05,VALID,999.129,VALID,0,VALID,91.1587,VALID,0,VALID,23.7207,VALID,84,VALID,0.55,
2010-10-11, 03:34:05,VALID,999.149,VALID,0,VALID,91.2197,VALID,0,VALID,23.6994,VALID,84,VALID,0.425,
2010-10-11, 03:35:05,VALID,999.176,VALID,0,VALID,91.2731,VALID,0,VALID,23.6994,VALID,84,VALID,0.457812,
2010-10-11, 03:36:05,VALID,999.201,VALID,0,VALID,91.3266,VALID,0,VALID,23.7597,VALID,84,VALID,0.367188,
2010-10-11, 03:37:05,VALID,999.181,VALID,0,VALID,91.3342,VALID,0,VALID,23.7189,VALID,84,VALID,0.441797,
2010-10-11, 03:38:05,VALID,999.201,VALID,0,VALID,91.3342,VALID,0,VALID,23.7384,VALID,84,VALID,0.499219,
2010-10-11, 03:39:05,VALID,999.222,VALID,0,VALID,91.3647,VALID,0,VALID,23.7384,VALID,84,VALID,0.505078,
2010-10-11, 03:40:05,VALID,999.225,VALID,0,VALID,91.4028,VALID,0,VALID,23.7384,VALID,84,VALID,0.516797,
2010-10-11, 03:41:05,VALID,999.24,VALID,0,VALID,91.4563,VALID,0,VALID,23.7597,VALID,84,VALID,0.436328,
2010-10-11, 03:42:05,VALID,999.222,VALID,0,VALID,91.4639,VALID,0,VALID,23.7597,VALID,84,VALID,0.422656,
2010-10-11, 03:43:05,VALID,999.222,VALID,0,VALID,91.5326,VALID,0,VALID,23.7597,VALID,84,VALID,0.536328,
2010-10-11, 03:44:05,VALID,999.216,VALID,0,VALID,91.5936,VALID,0,VALID,23.7793,VALID,84,VALID,0.696094,
2010-10-11, 03:45:05,VALID,999.243,VALID,0,VALID,91.6394,VALID,0,VALID,23.7811,VALID,84,VALID,0.570313,
2010-10-11, 03:46:05,VALID,999.249,VALID,0,VALID,91.6699,VALID,0,VALID,23.7597,VALID,41,VALID,0.614453,